Estación Meteorológica Peña el Pijo (Robertgarden) [ 07/07/20 10:08:18 CEST ]

Fecha Hora Presion(HPa) Temp (°C) Humedad % Rocio (°C) Viento ( m/s) Direccion Lluvia 1Hora(mm) Lluvia 24H(mm) LLuvia Total(mm)
2020-May-09 01:09:23 1007.100 - - - - W     39.88
2020-May-09 02:09:07 1007.000 - - - - W     39.88
2020-May-09 03:09:28 1006.200 - - - - W     39.88
2020-May-09 04:09:19 1005.400 - - - - W     39.88
2020-May-09 05:09:21 1005.500 - - - - W     39.88
2020-May-09 06:09:12 1005.300 - - - - W     39.88
2020-May-09 07:09:48 1005.500 - - - - W     39.88
2020-May-09 08:09:40 1005.400 - - - - W     39.88
2020-May-09 09:10:32 1005.000 - - - - W     39.88
2020-May-09 10:10:33 1004.500 - - - - W     39.88
2020-May-09 11:08:53 1004.000 - - - - W     39.88
2020-May-09 12:09:16 1004.000 - - - - W     39.88
2020-May-09 13:09:28 1003.600 - - - - W     39.88
2020-May-09 14:08:47 1002.800 - - - - W     39.88
2020-May-09 15:08:39 1002.500 - - - - W     39.88
2020-May-09 16:09:04 1001.400 - - - - W     39.88
2020-May-09 17:09:28 1001.000 - - - - W     39.88
2020-May-09 18:09:25 1000.600 - - - - W     39.88
2020-May-09 19:08:56 1000.700 - - - - W     39.88
2020-May-09 20:09:09 1001.200 - - - - W     39.88
2020-May-09 21:09:30 1001.800 - - - - W     39.88
2020-May-09 22:09:11 1002.200 - - - - W     39.88
2020-May-09 23:09:13 1002.600 - - - - W     39.88

Temperatura Máxima:    Temperatura Mínima:
Presión Máxima:1007.100 Hpa    Presión Mínima:1000.600 Hpa


Volver